Location: Newark
(45.5000°N, 11.4167°E)
Time: 12:59:03
(UTC+00:00)

Vanguard 3 - Pass Details

Date: 01 September 2019
Orbit: 508 x 3262 km, 33.3° (Epoch: 23 October)

Event Time Altitude Azimuth Distance (km) Brightness Sun altitude
Rises 12:47:57 0° 231° (SW) 6,935 12.6 47.7°
Reaches altitude 10° 12:53:33 10° 224° (SW) 5,615 12.4 47.1°
Maximum altitude 13:06:58 35° 167° (SSE) 2,944 10.9 45.6°
Drops below altitude 10° 13:15:31 10° 106° (ESE) 3,575 10.3 44.5°
Sets 13:18:13 0° 97° (E) 4,229 10.6 44.2°
